Regional Weather Roundup
Issued by NWS Newport/Morehead, NC

Current Version | Previous Version | Graphics & Text | Print | Product List | Glossary On
Versions: 1 2 3 4 5 6 7 8 9 10 11 12 13 14 15 16 17 18 19 20 21 22 23 24 25 26 27 28 29 30 31 32 33 34 35 36 37 38 39 40 41 42 43 44 45 46 47 48 49 50
000
ASUS42 KMHX 031424
RWRMHX
WEATHER ROUNDUP FOR EASTERN NORTH CAROLINA
NATIONAL WEATHER SERVICE NEWPORT/MOREHEAD CITY NC
1000 AM EDT SUN MAY 03 2015

NOTE: "FAIR" INDICATES FEW OR NO CLOUDS BELOW 12,000 FEET
WITH NO SIGNIFICANT WEATHER AND/OR OBSTRUCTIONS TO VISIBILITY

NCZ015>017-031-032-045>047-102-103-031500-
NORTH COAST

CITY           SKY/WX    TMP DP  RH WIND       PRES   REMARKS
EDENTON        SUNNY     68  55  63 W7        30.18R
ELIZABETH CITY SUNNY     68  53  58 W10       30.16S
KITTY HAWK     SUNNY     63  55  76 W8        30.15R
MANTEO         SUNNY     66  54  65 NW8       30.17R

$$

NCZ045>047-081-094-103-104-031500-
CENTRAL COAST

CITY           SKY/WX    TMP DP  RH WIND       PRES   REMARKS
FRISCO         SUNNY     61  55  81 W9        30.17S
SWANQUARTER      N/A     68 N/A N/A W6        30.15S

$$

NCZ095-097-098-100-101-031500-
SOUTHERN COAST

CITY           SKY/WX    TMP DP  RH WIND       PRES   REMARKS
BEAUFORT       SUNNY     70  55  59 NW7       30.19R
CEDAR ISLAND     N/A     70 N/A N/A SW5G10    30.21S
JACKSONVILLE   SUNNY     70  52  52 W6        30.19R
PINEY ISLAND   SUNNY    N/A N/A N/A W10       30.18R
WILMINGTON     SUNNY     72  50  45 NW5       30.20R


$$

NCZ011>013-027>030-043-044-078>080-089-090>093-098-031500-
COASTAL PLAIN

CITY           SKY/WX    TMP DP  RH WIND       PRES   REMARKS
AHOSKIE        SUNNY     68  52  55 CALM      30.17S
CLINTON        SUNNY     71  54  55 W3        30.21R
ELIZABETHTOWN  SUNNY     71  49  45 CALM      30.20R
GOLDSBORO      SUNNY     67  55  66 W6        30.18R
GREENVILLE     SUNNY     68  54  60 NW6       30.20R
HAVELOCK       SUNNY     70  54  56 W3        30.20R
KENANSVILLE    SUNNY     71  51  47 W6        30.21R
KINSTON        SUNNY     68  54  60 W6        30.20S
NEW BERN       SUNNY     70  54  56 W7        30.20R
RICHLANDS      SUNNY     72  52  49 SW6       30.20S
ROCKY MOUNT    SUNNY     69  55  60 W6        30.19S
WASHINGTON     SUNNY     69  54  59 W5        30.19S
WHITEVILLE     SUNNY     71  51  49 CALM      30.20R

$$

AMZ130-135-150-152-154-156-158-170-250-252-270-ANZ085-086-088-633-658-670-031500-
MARINE OBSERVATIONS

STATION/POSITION TIME  TEMP    WIND        PRES    WAVE   SWELL
                       AIR SEA DIR/SP/G            HT/PER HT/PER
                 (UTC) (F)     (DEG/KT/KT) (MB)    (FT/S) (FT/S)
CHESAPEAKE LIGHT 1400   62     280/ 11/ 11 1021.1
64 E VA BEACH    1350   56 60  240/  8/ 10 1020.2    6/ 9   7/ 9
DUCK             1300          260/ 10/ 11   N/A
2 E DUCK         1311      55                N/A     6/11   3/11
OREGON INLET     1300   60 56  260/  8/ 11 1021.0
13E OREGON INLT  1400      51                N/A     6/11   3/11
HATTERAS CG      1300   62 60  280/  8/  9 1021.0
DIAMOND BUOY     1350   59 58  310/  4/  6 1021.9    5/11   5/11
CAPE LOOKOUT     1400   65     290/  8/ 10 1022.0
BEAUFORT LAB     1300   66 62  290/  2/  6 1020.9
27 SE WRIGHTSVLE 1400   65 71  350/  6/  8   N/A
5 SE WRIGHTSVLE  1308   65 66  320/  4/  6 1022.3
225 S CAPE HAT   1350   67 69   20/ 16/ 19 1021.5    9/10   7/10
41 SE CHARLESTON 1350   69 73  300/  4/  6 1022.0    3/11   3/11

$$


USA.gov is the U.S. government's official web portal to all federal, state and local government web resources and services.